Regional Weather Roundup
Issued by NWS

Home | Current Version | Previous Version | Graphics & Text | Print | Product List | Glossary On
Versions: 1 2 3 4 5 6 7 8 9 10 11 12 13 14 15 16 17 18 19 20 21 22 23 24 25 26 27 28 29 30 31 32 33 34 35 36 37 38 39 40 41 42 43 44 45 46 47 48 49 50
000
ASUS43 KMKX 282021
RWRWI

WISCONSIN REGIONAL WEATHER ROUNDUP
NATIONAL WEATHER SERVICE MILWAUKEE/SULLIVAN WI
300 PM CDT SAT MAY 28 2016

NOTE: "FAIR" INDICATES FEW OR NO CLOUDS BELOW 12,000 FEET WITH NO
SIGNIFICANT WEATHER AND/OR OBSTRUCTIONS TO VISIBILITY.

WIZ001-002-006>008-014>016-023>028-282100-
NORTHWEST WISCONSIN

CITY           SKY/WX    TMP DP  RH WIND       PRES   REMARKS
SUPERIOR ARPT  CLOUDY    56  51  84 CALM      29.79S
ASHLAND        CLOUDY    63  57  81 CALM      29.77R
HAYWARD        CLOUDY    71  61  70 SW6       29.76R
SIREN          CLOUDY    65  59  78 N3        29.78R
CUMBERLAND     CLOUDY    68  61  77 SW3       29.77S
RICE LAKE      DRIZZLE   69  62  79 CALM      29.78S
CHETEK         DRIZZLE   69  65  88 SW7       29.77R
LADYSMITH      RAIN      73  65  76 CALM      29.76S
EAU CLAIRE     PTSUNNY   71  65  81 SW7       29.75F
MENOMONIE      RAIN      70  70  98 SE7       29.76F
NEW RICHMOND   HVY RAIN  65  64  94 N6        29.77S
OSCEOLA        LGT RAIN  66  66 100 NW5       29.79F
$$

WIZ003>005-009-010-017-018-282100-
NORTH CENTRAL WISCONSIN

CITY           SKY/WX    TMP DP  RH WIND       PRES   REMARKS
MANITOWISH WTR NOT AVBL
ARBOR VITAE    RAIN      66  64  94 NW3       29.75F
WOODRUFF       RAIN      66  64  94 NW3       29.75F
RHINELANDER    CLOUDY    73  64  73 S15G25    29.77S
EAGLE RIVER      N/A     72  69  90 S6        29.75F
LAND O LAKES   LGT RAIN  68  67  96 S6        29.77F
PHILLIPS       TSTM      66  65  99 CALM      29.77R VSB 1
TOMAHAWK       CLOUDY    69  64  84 SW6G22    29.77R
MEDFORD        CLOUDY    68  66  93 SW14      29.79R
MERRILL        PTSUNNY   75  66  72 SW13G26   29.77S
$$

WIZ029-030-035-036-043>047-282100-
CENTRAL WISCONSIN

CITY           SKY/WX    TMP DP  RH WIND       PRES   REMARKS
WAUSAU         MOSUNNY   79  63  57 S22G30    29.76S HX  80
MOSINEE        PTSUNNY   75  64  69 S15G21    29.79S
MARSHFIELD     MOSUNNY   77  65  66 W16       29.78S
STEVENS POINT  PTSUNNY   76  60  56 SW16G26   29.80S
WAUPACA        MOSUNNY   82  63  53 S14       29.81F HX  83
WAUTOMA        PTSUNNY   80  64  58 SW15G21   29.80F HX  82
WISC RAPIDS    MOSUNNY   78  58  49 SW18G26   29.81R
CAMP DOUGLAS   PTSUNNY   77  63  61 SW10G23   29.79F
$$

WIZ011>013-019>022-031-037>040-048>050-282100-
NORTHEAST WISCONSIN

CITY           SKY/WX    TMP DP  RH WIND       PRES   REMARKS
ANTIGO         PTSUNNY   75  65  71 SW17G23   29.80S
SHAWANO        PTSUNNY   80  63  55 S13G18    29.81F HX  82
OCONTO         PTSUNNY   79  69  70 S10G21    29.81S HX  82
STURGEON BAY   NOT AVBL
GREEN BAY      MOSUNNY   80  66  62 S18G25    29.81F HX  82
MANITOWOC      MOSUNNY   68  61  78 S20G26    29.86F
APPLETON       PTSUNNY   79  64  61 SW13      29.81F HX  81
CLINTONVILLE   MOSUNNY   81  59  47 SW18G26   29.81S HX  81
OSHKOSH        MOSUNNY   80  63  55 S20G26    29.82S HX  81
$$

WIZ032>034-041-042-053>061-282100-
SOUTHWEST WISCONSIN

CITY           SKY/WX    TMP DP  RH WIND       PRES   REMARKS
LA CROSSE      MOSUNNY   79  63  57 S13       29.75F HX  80
SPARTA         PTSUNNY   79  62  55 S13G20    29.78F HX  80
VIROQUA        PTSUNNY   76  61  58 S10       29.80F
BOSCOBEL       MOSUNNY   80  61  52 S13G20    29.78F HX  81
PRAIRIE DU CHI PTSUNNY   78  59  50 SE5       29.77F HX  80
PLATTEVILLE    PTSUNNY   80  64  59 S17G26    29.81F HX  81
$$

WIZ056-057-062-063-064-067-068-282100-
SOUTH CENTRAL WISCONSIN

CITY           SKY/WX    TMP DP  RH WIND       PRES   REMARKS
REEDSBURG      MOSUNNY   79  64  60 S16G23    29.80F HX  81
BARABOO/DELLS  PTSUNNY   78  61  55 SW12G20   29.80F HX  80
LONE ROCK      MOSUNNY   82  62  50 S17       29.80F HX  83
MINERAL POINT  MOSUNNY   81  63  54 S15G25    29.82F HX  82
MADISON        PTSUNNY   81  61  50 S20G28    29.81F HX  82
MIDDLETON      MOSUNNY   82  63  53 SW17G25   29.83S HX  83
WATERTOWN      PTSUNNY   80  64  57 S17G23    29.84S HX  82
MONROE         MOSUNNY   79  63  57 S20       29.83F HX  80
JANESVILLE     MOSUNNY   82  64  54 S15G21    29.84F HX  84
$$

WIZ051-052-058>065-066-070>072-282100-
SOUTHEAST WISCONSIN

CITY           SKY/WX    TMP DP  RH WIND       PRES   REMARKS
MILWAUKEE      PTSUNNY   80  65  59 S14G26    29.87F HX  82
WAUKESHA       PTSUNNY   77  64  65 S16G24    29.88F
MILWAUKEE/TIMM MOSUNNY   79  61  53 S18G24    29.87F HX  80
RACINE         PTSUNNY   78  63  59 SE10      29.89F HX  80
BURLINGTON     MOSUNNY   81  64  54 S12G22    29.87S HX  83
KENOSHA        CLOUDY    80  64  58 S16G23    29.89F HX  82
FOND DU LAC    MOSUNNY   81  65  58 S18G28    29.82F HX  83
SHEBOYGAN      CLOUDY    74  64  71 S13G18    29.85F
WEST BEND      CLOUDY    79  64  61 S10G20    29.85S HX  81
JUNEAU         MOSUNNY   78  64  60 S15G25    29.85S HX  80
$$

LSZ147-162-282100-
LAKE SUPERIOR

STATION/POSITION TIME  TEMP    WIND        PRES    WAVE
                       AIR SEA DIR/SP/G            HT/PER
                 (UTC) (F)     (DEG/KT/KT) (MB)    (FT/S)
W MID LAKE BUOY  1950   41 38   60/  6/  6 1008.7F   1/ 4
DEVILS ISLAND    2000   44     350/  6/  7 1008.7F
SAXON HARBOR     1900   52     350/  2/  2 1007.8F
$$

LMZ867-665-643>646-282100-
LAKE MICHIGAN

STATION/POSITION TIME  TEMP    WIND        PRES    WAVE
                       AIR SEA DIR/SP/G            HT/PER
                 (UTC) (F)     (DEG/KT/KT) (MB)    (FT/S)
CHAMBERS ISLAND  1900   71     140/  9/ 18 1009.8S
N MID LAKE BUOY  1950   54 46  190/ 17/ 21 1010.9R   3/ 5
NORTHPORT PIER   2000   66     160/ 11/ 17 1010.5F
SISTER BAY       1905   71     200/ 27/ 34   N/A
ALGOMA LAKESHORE 1902          210/ 13/ 14   N/A
KEWAUNEE LAKESHO 1900   54     180/ 12/ 14 1010.8R
SHEBOYGAN LAKESH 2000   57     170/ 18/ 18 1011.5F
PORT WASHINGTON  1900   62     190/  7/  9 1012.5S
S MID LAKE BUOY  1950   55 50  160/ 10/ 12 1013.2S   1/ 3
KENOSHA   LAKESH 2000   61     170/ 14/ 18 1011.9F
$$

TC  - TEMPERATURE IN CELSIUS
VSB - VISIBILITY IN STATUTE MILES
WCI - WIND CHILL INDEX
HX  - HEAT INDEX




USA.gov is the U.S. government's official web portal to all federal, state and local government web resources and services.